Weather History for Pagosa Springs, CO

Change the Weather History Date:

Tuesday, April 2, 2013

  Actual Average (KDRO) Record (KDRO)
Temperature  
Mean Temperature 40 °F 42 °F  
Max Temperature 50 °F 57 °F 73 °F (2002)
Min Temperature 29 °F 26 °F 13 °F (1970)
Degree Days  
Heating Degree Days 26 23  
Month to date heating degree days 46  
Since 1 July heating degree days 6075  
Cooling Degree Days 0 0  
Month to date cooling degree days 0  
Year to date cooling degree days 0  
Moisture  
Dew Point 16 °F    
Average Humidity 41    
Maximum Humidity 78    
Minimum Humidity 19    
Precipitation  
Precipitation 0.00 in 0.04 in 0.58 in (2004)
Month to date precipitation 0.07  
Year to date precipitation 3.60  
Sea Level Pressure  
Sea Level Pressure 30.00 in    
Wind  
Wind Speed 3 mph (West)    
Max Wind Speed 16 mph    
Max Gust Speed 25 mph    
Visibility 10 miles    
Events      
T = Trace of Precipitation, MM = Missing Value Source: NWS Daily Summary

Daily Weather History Graph

Daily Weather History Graph

Search for Another Location

Airport:

Trip Planner

Search our weather history database for the weather conditions in past years. The results will help you decide how hot, cold, wet, or windy it might be!

Date:

Astronomy

Apr. 02, 2013 Rise Set
Actual Time 6:51 AM MDT 7:32 PM MDT
Civil Twilight 6:25 AM MDT 7:58 PM MDT
Nautical Twilight 5:54 AM MDT 8:29 PM MDT
Astronomical Twilight 5:22 AM MDT 9:01 PM MDT
Moon 1:34 AM MDT (4/2) 11:51 AM MDT (4/2)
Length of Visible Light 13h 32m
Length of Day
12h 40m
Waning Gibbous, 55% of the Moon is Illuminated
Apr 2
Waning Gibbous
Apr 2
Last Quarter
Apr 10
New
Apr 18
First Quarter
Apr 25
Full

Hourly Weather History & Observations

Time (MDT) Temp. Windchill Dew Point Humidity Pressure Visibility Wind Dir Wind Speed Gust Speed Precip Events Conditions
12:15 AM 36.0 °F - 16.3 °F 45% 30.01 in 10.0 mi Calm Calm - N/A   Clear
12:35 AM 36.1 °F - 15.3 °F 43% 30.01 in 10.0 mi Calm Calm - N/A   Clear
12:55 AM 35.2 °F - 16.7 °F 47% 30.01 in 10.0 mi Calm Calm - N/A   Clear
1:15 AM 34.7 °F - 18.1 °F 51% 30.01 in 10.0 mi Calm Calm - N/A   Clear
1:35 AM 34.5 °F - 17.4 °F 50% 30.01 in 10.0 mi Calm Calm - N/A   Clear
1:55 AM 33.8 °F 30.8 °F 16.9 °F 50% 30.01 in 10.0 mi NE 3.5 mph - N/A   Clear
2:15 AM 34.5 °F 31.6 °F 14.9 °F 45% 30.01 in 10.0 mi NNE 3.5 mph - N/A   Clear
2:35 AM 34.2 °F 31.2 °F 15.3 °F 46% 30.00 in 10.0 mi NNE 3.5 mph - N/A   Clear
2:55 AM 34.3 °F - 14.7 °F 45% 30.00 in 10.0 mi Calm Calm - N/A   Clear
3:15 AM 32.5 °F - 16.3 °F 51% 29.99 in 10.0 mi Calm Calm - N/A   Clear
3:35 AM 32.0 °F - 15.8 °F 51% 29.99 in 10.0 mi Calm Calm - N/A   Clear
3:55 AM 32.4 °F - 15.1 °F 49% 29.99 in 10.0 mi Calm Calm - N/A   Clear
4:15 AM 31.8 °F 28.5 °F 17.2 °F 55% 29.99 in 10.0 mi NNE 3.5 mph - N/A   Clear
4:35 AM 32.0 °F - 16.7 °F 53% 29.99 in 10.0 mi Calm Calm - N/A   Clear
4:55 AM 32.7 °F - 14.2 °F 47% 29.99 in 10.0 mi Calm Calm - N/A   Clear
5:15 AM 31.5 °F - 16.0 °F 53% 30.00 in 10.0 mi Calm Calm - N/A   Clear
5:35 AM 30.0 °F - 15.4 °F 55% 30.00 in 10.0 mi Calm Calm - N/A   Clear
5:55 AM 29.8 °F - 17.4 °F 60% 30.01 in 10.0 mi Calm Calm - N/A   Clear
6:15 AM 32.2 °F 27.7 °F 14.5 °F 48% 30.01 in 10.0 mi NE 4.6 mph - N/A   Clear
6:35 AM 30.6 °F - 15.4 °F 54% 30.01 in 10.0 mi Calm Calm - N/A   Clear
6:55 AM 30.9 °F - 15.4 °F 53% 30.02 in 10.0 mi Calm Calm - N/A   Clear
7:15 AM 30.4 °F - 14.9 °F 53% 30.02 in 10.0 mi Calm Calm - N/A   Clear
7:35 AM 32.0 °F 27.5 °F 16.5 °F 53% 30.02 in 10.0 mi NE 4.6 mph - N/A   Clear
7:55 AM 34.9 °F 30.8 °F 16.3 °F 47% 30.02 in 10.0 mi NE 4.6 mph - N/A   Clear
8:35 AM 39.2 °F - 14.7 °F 37% 30.02 in 10.0 mi Calm Calm - N/A   Clear
8:55 AM 40.6 °F - 11.8 °F 31% 30.02 in 10.0 mi Calm Calm - N/A   Clear
9:15 AM 41.7 °F - 13.6 °F 32% 30.02 in 10.0 mi Calm Calm - N/A   Clear
9:35 AM 42.6 °F - 12.6 °F 30% 30.01 in 10.0 mi Calm Calm - N/A   Clear
9:55 AM 43.7 °F - 10.2 °F 26% 30.01 in 10.0 mi Calm Calm - N/A   Clear
10:15 AM 45.1 °F - 12.6 °F 27% 30.01 in 10.0 mi Calm Calm - N/A   Clear
10:35 AM 46.4 °F - 14.0 °F 27% 30.01 in 10.0 mi Calm Calm - N/A   Clear
10:55 AM 47.1 °F - 13.1 °F 25% 30.00 in 10.0 mi SSW 3.5 mph - N/A   Clear
11:15 AM 48.0 °F - 13.6 °F 25% 30.00 in 10.0 mi SW 6.9 mph - N/A   Clear
11:35 AM 48.2 °F - 10.4 °F 22% 30.00 in 10.0 mi WSW 8.1 mph - N/A   Clear
11:55 AM 48.6 °F - 12.7 °F 24% 29.99 in 10.0 mi WSW 10.4 mph - N/A   Clear
12:15 PM 48.7 °F - 13.8 °F 25% 29.99 in 10.0 mi SW 6.9 mph 20.7 mph N/A   Scattered Clouds
12:35 PM 49.1 °F - 12.6 °F 23% 29.99 in 10.0 mi SSW 3.5 mph - N/A   Mostly Cloudy
12:55 PM 50.4 °F - 10.9 °F 21% 29.98 in 10.0 mi SSW 12.7 mph 19.6 mph N/A   Mostly Cloudy
1:15 PM 50.7 °F - 10.4 °F 20% 29.97 in 10.0 mi SSW 15.0 mph 20.7 mph N/A   Mostly Cloudy
1:35 PM 49.6 °F - 8.8 °F 19% 29.97 in 10.0 mi SW 11.5 mph 16.1 mph N/A   Scattered Clouds
1:55 PM 48.9 °F - 10.9 °F 22% 29.96 in 10.0 mi South 16.1 mph 21.9 mph N/A   Mostly Cloudy
2:15 PM 46.6 °F - 10.9 °F 24% 29.97 in 10.0 mi NNE 8.1 mph - N/A   Overcast
2:35 PM 47.7 °F - 12.2 °F 24% 29.95 in 10.0 mi SSE 6.9 mph 21.9 mph N/A   Overcast
2:55 PM 47.7 °F - 12.6 °F 24% 29.94 in 10.0 mi NNE 6.9 mph 17.3 mph N/A   Overcast
3:15 PM 49.8 °F - 13.3 °F 23% 29.94 in 10.0 mi NW 10.4 mph - N/A   Mostly Cloudy
3:35 PM 49.5 °F - 12.6 °F 23% 29.93 in 10.0 mi WNW 5.8 mph - N/A   Clear
3:55 PM 50.4 °F - 9.5 °F 19% 29.93 in 10.0 mi West 13.8 mph 25.3 mph N/A   Scattered Clouds
4:15 PM 48.7 °F - 15.1 °F 26% 29.94 in 10.0 mi WNW 15.0 mph 24.2 mph N/A   Mostly Cloudy
4:35 PM 50.4 °F - 15.8 °F 25% 29.94 in 10.0 mi WNW 11.5 mph 20.7 mph N/A   Mostly Cloudy
4:55 PM 50.2 °F - 11.7 °F 21% 29.95 in 10.0 mi WSW 13.8 mph 21.9 mph N/A   Scattered Clouds
5:15 PM 50.9 °F - 12.0 °F 21% 29.95 in 10.0 mi West 16.1 mph 23.0 mph N/A   Scattered Clouds
5:35 PM 49.3 °F - 16.9 °F 28% 29.95 in 10.0 mi WNW 11.5 mph 18.4 mph N/A   Clear
5:55 PM 47.1 °F - 14.9 °F 28% 29.97 in 10.0 mi WNW 13.8 mph 18.4 mph N/A   Clear
6:15 PM 48.4 °F - 13.8 °F 25% 29.97 in 10.0 mi West 9.2 mph 16.1 mph N/A   Clear
6:35 PM 46.6 °F - 15.4 °F 29% 29.97 in 10.0 mi WSW 13.8 mph 18.4 mph N/A   Clear
6:55 PM 45.5 °F 39.9 °F 17.6 °F 33% 29.98 in 10.0 mi WSW 11.5 mph 17.3 mph N/A   Clear
7:15 PM 43.7 °F 38.6 °F 20.3 °F 39% 29.99 in 10.0 mi West 9.2 mph - N/A   Scattered Clouds
7:35 PM 43.0 °F 38.8 °F 20.1 °F 40% 29.99 in 10.0 mi West 6.9 mph - N/A   Scattered Clouds
7:55 PM 41.9 °F 39.0 °F 20.8 °F 43% 29.99 in 10.0 mi West 4.6 mph - N/A   Scattered Clouds
8:15 PM 41.4 °F 36.2 °F 21.6 °F 45% 30.00 in 10.0 mi West 8.1 mph - N/A   Clear
8:35 PM 40.5 °F 34.6 °F 22.8 °F 49% 30.00 in 10.0 mi WSW 9.2 mph - N/A   Clear
8:55 PM 40.3 °F 36.3 °F 23.2 °F 51% 30.01 in 10.0 mi WSW 5.8 mph - N/A   Clear
9:15 PM 38.1 °F - 24.1 °F 57% 30.02 in 10.0 mi Calm Calm - N/A   Clear
9:35 PM 37.4 °F - 23.4 °F 57% 30.03 in 10.0 mi Calm Calm - N/A   Clear
9:55 PM 34.7 °F - 23.4 °F 63% 30.04 in 10.0 mi Calm Calm - N/A   Clear
10:15 PM 32.4 °F - 24.1 °F 72% 30.05 in 10.0 mi Calm Calm - N/A   Clear
10:35 PM 32.4 °F - 25.0 °F 74% 30.05 in 10.0 mi Calm Calm - N/A   Clear
10:55 PM 32.2 °F - 24.8 °F 74% 30.05 in 10.0 mi Calm Calm - N/A   Clear
11:15 PM 32.0 °F 26.4 °F 25.2 °F 76% 30.05 in 10.0 mi NNE 5.8 mph - N/A   Clear
11:35 PM 32.9 °F - 25.0 °F 73% 30.05 in 10.0 mi Calm Calm - N/A   Clear
11:55 PM 31.5 °F - 25.2 °F 78% 30.05 in 10.0 mi Calm Calm - N/A   Clear